Home   Weather   Wilmington   Past weeks

Flag for USA Past Weather in Wilmington, Delaware, USA — Yesterday and Last 2 Weeks

Now
69 °F

Partly sunny.


Feels Like: 69 °F
Forecast: 57 / 72 °F
Wind: 17 mph from Southwest

Location: New Castle County Airport

Current Time: Mar 1, 2017 at 1:16:05 pm

Latest Report: Mar 1, 2017 at 11:51 am


Visibility: 10 mi

Pressure: 29.65 "Hg

Humidity: 79%

Dew Point: 62 °F

Location of WilmingtonLocation

Past Weather in Wilmington — Graph

°F

Wilmington Temperature Yesterday

Maximum temperature yesterday: 64 °F (at 1:51 pm)
Minimum temperature yesterday: 41 °F (at 6:51 am)
Average temperature yesterday: 52 °F

High & Low Weather Summary for the Past Weeks

 TemperatureHumidityPressure
High72 °F (Feb 23, 3:51 pm)100% (Feb 22, 11:19 pm)30.46 "Hg (Feb 22, 11:19 pm)
Low25 °F (Feb 17, 4:51 am)26% (Feb 18, 2:51 pm)29.37 "Hg (Feb 15, 1:51 pm)
Average47 °F66%29.94 "Hg
* Reported Feb 14 11:51 am — Mar 1 11:51 am, Wilmington, Weather by CustomWeather, © 2017

Note: Actual official high and low records may vary slightly from our data, if they occured in-between our weather recording intervals... More about our weather records

Advertising

Wilmington Weather History for the Previous 24 Hours

Scroll right to see more
 ConditionsComfort  
Time TempWeatherWind HumidityBarometerVisibility
11:51 am
Wed, Mar 1
69 °FPartly sunny.17 mph79%29.65 "Hg10 mi
10:51 am66 °FMostly cloudy.18 mph84%29.68 "Hg10 mi
10:29 am65 °FPartly sunny.20 mph85%29.71 "Hg10 mi
10:00 am64 °FBroken clouds.12 mph87%29.72 "Hg10 mi
9:13 am55 °FMore clouds than sun.No wind100%29.75 "Hg7 mi
8:51 am54 °FFog.8 mph100%29.74 "Hg1 mi
8:28 am55 °FFog.8 mph100%29.76 "Hg1 mi
8:17 am55 °FFog.8 mph100%29.78 "Hg2 mi
7:51 am58 °FFog.7 mph97%29.79 "Hg4 mi
6:51 am57 °FFog.12 mph100%29.82 "Hg5 mi
5:51 am57 °FLow clouds.9 mph100%29.83 "Hg9 mi
5:32 am56 °FFog.13 mph100%29.85 "Hg5 mi
5:08 am51 °FFog.5 mph100%29.86 "Hg1 mi
4:51 am51 °FFog.6 mph100%29.86 "Hg1 mi
4:34 am51 °FFog.6 mph100%29.87 "Hg1 mi
3:51 am50 °FFog.7 mph100%29.88 "Hg0 mi
2:51 am51 °FFog.6 mph100%29.91 "Hg0 mi
1:51 am51 °FFog.7 mph100%29.94 "Hg0 mi
1:14 am52 °FFog.9 mph100%29.96 "Hg0 mi
12:51 am52 °FLight rain. Fog.8 mph100%29.98 "Hg1 mi
12:09 am53 °FLight rain. Fog.7 mph100%30.00 "Hg1 mi
12:02 am54 °FLight rain. Fog.8 mph100%30.00 "Hg1 mi
11:51 pm
Tue, Feb 28
54 °FLight rain. Fog.7 mph100%30.01 "Hg2 mi
11:39 pm54 °FLight rain. Fog.9 mph100%30.01 "Hg2 mi
11:22 pm54 °FFog.8 mph100%30.01 "Hg2 mi
11:08 pm53 °FLight rain. Fog.6 mph100%30.02 "Hg3 mi
10:51 pm53 °FLight rain. Fog.5 mph100%30.03 "Hg2 mi
10:29 pm52 °FLight rain. Fog.7 mph100%30.05 "Hg2 mi
9:51 pm52 °FLight rain. Fog.9 mph97%30.06 "Hg6 mi
8:51 pm52 °FOvercast.7 mph97%30.09 "Hg10 mi
7:51 pm53 °FLight rain. Overcast.8 mph96%30.10 "Hg10 mi
6:51 pm56 °FRain. Mostly cloudy.5 mph90%30.14 "Hg8 mi
5:51 pm58 °FCloudy.6 mph78%30.15 "Hg10 mi
4:51 pm58 °FPassing clouds.9 mph75%30.14 "Hg10 mi
3:51 pm60 °FSunny.12 mph67%30.15 "Hg10 mi
2:51 pm63 °FPassing clouds.10 mph58%30.16 "Hg10 mi
1:51 pm64 °FSunny.9 mph56%30.18 "Hg10 mi
Weather by CustomWeather, © 2017

See weather overviewHow to use our weather pages